[[{"header":{"parameterUnit":"m.s-1","parameterCategory":1,"la1":30.2991,"la2":30.254,"lo1":-89.0895,"lo2":-89.0444,"dy":0.0017,"dx":0.0017,"nx":28,"ny":28,"refTime":"2025-08-16T21:00:00:Z","depth":0,"parameterNumber":2,"parameterNumberName":"U-component_of_WINDS"},"data":[0,0,0,0,0,0,0,0,0,0,0,0,0,0,0,0,0,0,0,0,0,0,0,0,0,0,0,0,0,0,0,0,0,0,0,0,0,0,0,0,0,0,0,0,0,0,0,0,0,0,0,0,0,0,0,0,0,0,2.5022,2.5024,0,2.5193,2.5195,2.5197,2.5241,2.524,2.5239,2.5238,2.5411,2.5417,2.5422,0,0,0,0,0,0,0,0,0,0,0,0,0,2.4734,2.4739,2.5022,2.5024,2.5026,2.5192,2.5195,2.5197,2.5241,2.524,2.5239,2.5238,2.541,2.5416,2.5423,0,0,0,0,0,0,0,0,0,0,0,0,0,2.4877,2.4741,2.5022,2.5069,2.5074,2.5192,2.5195,2.5198,2.5241,2.524,2.5238,2.5237,2.5407,2.5416,2.5424,2.5507,0,0,2.5449,2.5453,0,0,0,0,0,0,0,0,2.4869,2.4888,2.506,2.5066,2.5072,2.5194,2.5157,2.5301,2.5242,2.5178,2.5238,2.5236,2.534,2.5354,2.5389,2.5515,2.5522,2.545,2.5455,2.5459,2.5461,0,0,0,0,0,0,0,2.4859,2.4881,2.509,2.5062,2.507,2.5081,2.5099,2.5184,2.5266,2.5183,2.5187,2.5207,2.5343,2.5381,2.5394,2.5525,2.545,2.5457,2.5463,2.5466,2.5726,2.5728,0,0,0,0,0,0,2.4841,2.4872,2.5084,2.5095,2.4965,2.5087,2.5108,2.5157,2.5265,2.528,2.5208,2.5208,2.5368,2.5384,2.54,2.5503,2.5459,2.5467,2.5471,2.5724,2.5726,2.5728,0,0,0,0,0,0,2.4835,2.486,2.5077,2.4985,2.5013,2.5094,2.5148,2.5161,2.5199,2.5283,2.5298,2.5232,2.5367,2.5388,2.548,2.551,2.547,2.5478,2.5722,2.5725,2.5727,2.5711,0,0,0,0,0,0,2.4827,2.4857,2.489,2.4985,2.5018,2.5154,2.515,2.5165,2.5213,2.5215,2.5309,2.5324,2.5368,2.5467,2.5488,2.5521,2.5485,2.5719,2.5723,2.5726,2.5709,2.5713,2.5716,0,0,0,0,0,2.4816,2.4878,2.4891,2.4916,2.506,2.5156,2.5175,2.5224,2.5215,2.5248,2.5303,2.5321,2.5504,2.5476,2.55,2.5536,2.5718,2.5722,2.5726,2.5708,2.5712,2.5716,0,0,0,0,0,0,2.4784,2.4892,2.4907,2.5002,2.507,2.5163,2.5206,2.5228,2.5299,2.5298,2.5356,2.5377,2.5464,2.551,2.5477,2.5621,2.5611,2.562,2.5588,2.5593,2.5597,2.5583,2.5491,0,0,0,0,0,2.4788,2.4857,2.4947,2.5022,2.5056,2.5125,2.5169,2.5201,2.5273,2.5302,2.5363,2.5432,2.5505,2.5552,2.5624,2.5716,2.5737,2.5753,2.5756,2.5759,2.5766,2.5817,2.5825,2.5742,2.5742,2.5742,0,0,2.4797,2.4864,2.4904,2.5018,2.5074,2.5144,2.5149,2.5223,2.5275,2.5313,2.5403,2.545,2.5531,2.5623,2.5667,2.5664,2.5793,2.5764,2.5766,2.5771,2.5822,2.583,2.5837,2.5745,2.5745,2.5744,0,0,2.4849,2.4907,2.4975,2.5032,2.5117,2.5163,2.5179,2.527,2.5303,2.5394,2.5424,2.5487,2.5612,2.5668,2.5713,2.5786,2.5805,2.5808,2.5826,2.5875,2.5882,2.5888,2.5913,2.5921,2.5815,2.5815,2.5815,0,2.4849,2.4955,2.5008,2.508,2.5129,2.5167,2.5237,2.5289,2.5393,2.5425,2.5421,2.5578,2.5635,2.574,2.5758,2.5794,2.5814,2.5797,2.5877,2.5883,2.589,2.5914,2.5924,2.5815,2.5815,2.5815,2.5815,0,2.4951,2.5024,2.5069,2.5169,2.5223,2.5293,2.5356,2.5405,2.5432,2.5478,2.5571,2.5641,2.5727,2.5755,2.5783,2.5864,2.586,2.5865,2.5855,2.5896,2.592,2.593,2.5815,2.5815,2.5815,2.5815,0,0,2.4986,2.5114,2.513,2.5175,2.5272,2.533,2.5402,2.5487,2.5526,2.5597,2.5658,2.5763,2.5769,2.582,2.5855,2.5898,2.5951,2.5899,2.5901,2.5905,2.6043,2.6038,2.6048,2.5964,2.5966,2.5968,2.6036,0,2.5049,2.5179,2.5228,2.5335,2.5403,2.5441,2.5503,2.5569,2.5615,2.5679,2.5729,2.5802,2.5804,2.5835,2.588,2.5934,2.5979,2.5931,2.6021,2.6023,2.5998,2.606,2.6055,2.6116,2.6046,2.6048,2.6049,0,2.5139,2.5211,2.5324,2.5412,2.5442,2.5498,2.5579,2.5641,2.5716,2.5746,2.5803,2.5835,2.5911,2.5898,2.6004,2.5969,2.601,2.6042,2.6046,2.6055,2.6037,2.607,2.6137,2.6145,2.6064,2.6063,2.6062,0,2.5152,2.5277,2.536,2.5398,2.5503,2.5541,2.5587,2.5661,2.5709,2.578,2.5812,2.5891,2.5934,2.5995,2.6047,2.6033,2.6148,2.6139,2.6174,2.6173,2.6195,2.6193,2.6268,2.6223,2.6223,2.6223,2.6223,0,2.5216,2.5283,2.5367,2.5418,2.5495,2.5551,2.5625,2.5673,2.5739,2.58,2.5838,2.5894,2.5961,2.6025,2.6067,2.6148,2.6167,2.6193,2.6203,2.6189,2.6185,2.6215,2.6212,2.6226,2.6225,2.6225,2.6224,0,2.5242,2.5301,2.5395,2.5487,2.5512,2.5564,2.5643,2.5694,2.5741,2.5818,2.5839,2.5913,2.5991,2.605,2.6151,2.6179,2.6265,2.6276,2.6239,2.6244,2.6275,2.6271,2.6371,2.6386,2.6332,2.6332,2.6333,0,2.5278,2.5331,2.5429,2.5473,2.5518,2.5588,2.5637,2.5695,2.5744,2.5834,2.5874,2.5955,2.6023,2.6146,2.6208,2.6286,2.6298,2.6328,2.631,2.6294,2.6297,2.6293,2.6298,2.633,2.633,2.633,2.6331,0,2.5336,2.5363,2.5432,2.5512,2.5569,2.5635,2.5701,2.5734,2.5804,2.5857,2.5938,2.599,2.6094,2.6174,2.6258,2.6304,2.6329,2.6336,2.6348,2.6333,2.6309,2.6322,2.6244,2.6333,2.6333,2.6333,2.6333,2.6332,2.5368,2.5416,2.5492,2.5568,2.5624,2.5685,2.5737,2.5791,2.5859,2.5948,2.5978,2.6061,2.6135,2.6251,2.6298,2.6364,2.6364,2.6381,2.6386,2.6389,2.6387,2.63,2.638,2.638,2.638,2.638,2.638,0,2.5426,2.5477,2.5547,2.5638,2.5697,2.5716,2.579,2.5839,2.5911,2.5979,2.6044,2.6137,2.6214,2.6283,2.6363,2.6402,2.6416,2.6422,2.6419,2.6429,2.6383,2.6364,2.6409,2.6409,2.6409,2.6409,2.6409,2.6409,2.5464,2.5546,2.5582,2.5692,2.5743,2.5824,2.5865,2.5921,2.5975,2.6076,2.6141,2.6186,2.6254,2.6339,2.6411,2.6429,2.6457,2.6459,2.648,2.6436,2.6432,2.6428,2.6411,2.6465,2.6465,2.652,2.6521,2.6521]},{"header":{"parameterUnit":"m.s-1","parameterCategory":1,"la1":30.2991,"la2":30.254,"lo1":-89.0895,"lo2":-89.0444,"dy":0.0017,"dx":0.0017,"nx":28,"ny":28,"refTime":"2025-08-16T21:00:00:Z","depth":0,"parameterNumber":3,"parameterNumberName":"V-component_of_WINDS"},"data":[0,0,0,0,0,0,0,0,0,0,0,0,0,0,0,0,0,0,0,0,0,0,0,0,0,0,0,0,0,0,0,0,0,0,0,0,0,0,0,0,0,0,0,0,0,0,0,0,0,0,0,0,0,0,0,0,0,0,1.9122,1.9122,0,1.9166,1.9166,1.9167,1.9134,1.9133,1.9131,1.913,1.9176,1.9178,1.9181,0,0,0,0,0,0,0,0,0,0,0,0,0,1.9008,1.9011,1.9122,1.9122,1.9123,1.9166,1.9166,1.9167,1.9134,1.9133,1.9131,1.9129,1.9175,1.9178,1.9181,0,0,0,0,0,0,0,0,0,0,0,0,0,1.9056,1.9011,1.9122,1.9112,1.9111,1.9166,1.9166,1.9167,1.9135,1.9133,1.913,1.9128,1.9174,1.9178,1.9181,1.9248,0,0,1.9193,1.9195,0,0,0,0,0,0,0,0,1.9053,1.906,1.9113,1.9113,1.9112,1.9142,1.9143,1.9194,1.9135,1.9126,1.913,1.9127,1.9166,1.9171,1.9184,1.9251,1.9252,1.9194,1.9196,1.9198,1.9199,0,0,0,0,0,0,0,1.905,1.9058,1.9139,1.9113,1.9113,1.9105,1.9109,1.9153,1.9158,1.9127,1.9124,1.913,1.9166,1.918,1.9185,1.9253,1.9193,1.9197,1.9199,1.9201,1.9375,1.9377,0,0,0,0,0,0,1.9047,1.9055,1.9138,1.9141,1.9077,1.9109,1.9113,1.9135,1.9157,1.9158,1.9132,1.9128,1.9175,1.918,1.9186,1.9265,1.9198,1.9201,1.9203,1.9372,1.9375,1.9378,0,0,0,0,0,0,1.9045,1.9055,1.9136,1.9097,1.9107,1.9113,1.9137,1.9137,1.9151,1.9161,1.9162,1.9145,1.9173,1.9181,1.9233,1.9266,1.9203,1.9206,1.937,1.9373,1.9376,1.9424,0,0,0,0,0,0,1.9042,1.9054,1.908,1.9098,1.9109,1.9182,1.9139,1.9139,1.9158,1.9154,1.9174,1.9176,1.9172,1.9227,1.9236,1.927,1.9209,1.9367,1.9371,1.9375,1.9419,1.9428,1.9436,0,0,0,0,0,1.9038,1.9093,1.9082,1.9092,1.9142,1.9184,1.9191,1.9185,1.9161,1.9186,1.9192,1.9175,1.9261,1.9233,1.9243,1.9278,1.9365,1.937,1.9375,1.9415,1.9426,1.9436,0,0,0,0,0,0,1.908,1.9095,1.9083,1.9145,1.9164,1.9179,1.9211,1.9198,1.9224,1.9219,1.9211,1.9216,1.9271,1.9279,1.9248,1.9343,1.9309,1.9316,1.9336,1.9346,1.9355,1.9352,1.9213,0,0,0,0,0,1.9096,1.9129,1.9141,1.9194,1.9204,1.9206,1.9224,1.9218,1.9238,1.9245,1.9255,1.9274,1.9305,1.9326,1.9355,1.942,1.9423,1.9449,1.9457,1.9464,1.9471,1.9504,1.9516,1.9395,1.9395,1.9395,0,0,1.913,1.9142,1.9164,1.9203,1.9216,1.9251,1.9213,1.9251,1.9277,1.9251,1.9301,1.9308,1.9329,1.9387,1.9413,1.9396,1.9505,1.9471,1.9476,1.9479,1.9511,1.9522,1.9532,1.9398,1.9398,1.9397,0,0,1.921,1.9223,1.9268,1.9282,1.9303,1.9303,1.9314,1.9331,1.9335,1.9384,1.9365,1.9395,1.9449,1.9464,1.9479,1.9561,1.9546,1.9571,1.9616,1.9648,1.9658,1.9666,1.9695,1.9705,1.9577,1.9578,1.9578,0,1.925,1.9301,1.9293,1.9332,1.9349,1.9327,1.9372,1.9386,1.9415,1.9427,1.9408,1.9474,1.9486,1.9547,1.9566,1.9579,1.9591,1.9569,1.9657,1.9665,1.9673,1.97,1.9711,1.958,1.958,1.958,1.958,0,1.9349,1.9384,1.9418,1.9446,1.9467,1.9509,1.9507,1.9529,1.952,1.9523,1.9572,1.9586,1.9617,1.963,1.9623,1.9689,1.9678,1.9658,1.9623,1.9687,1.9713,1.9724,1.9585,1.9584,1.9583,1.9582,0,0,1.9458,1.9479,1.9492,1.9504,1.9523,1.9551,1.9591,1.9621,1.9639,1.9659,1.9693,1.9738,1.9718,1.9735,1.9729,1.9757,1.982,1.9733,1.9733,1.9749,1.9893,1.9909,1.9921,1.981,1.9812,1.9813,1.9892,0,1.9539,1.9609,1.9602,1.9668,1.97,1.9678,1.9713,1.9729,1.9732,1.9759,1.9762,1.9793,1.9766,1.9775,1.9803,1.9807,1.985,1.9801,1.9841,1.9842,1.9837,1.9935,1.9952,2.0025,1.9902,1.9903,1.9905,0,1.9643,1.9665,1.9735,1.9748,1.9762,1.9793,1.9819,1.9845,1.9862,1.9862,1.9879,1.9867,1.9907,1.987,1.9925,1.9892,1.9907,1.9912,1.9914,1.9918,1.9878,1.9941,2.0048,2.0059,1.992,1.9919,1.9918,0,1.9715,1.9763,1.981,1.9821,1.9838,1.986,1.9868,1.9883,1.99,1.9922,1.9934,1.996,1.9975,1.9995,1.9991,1.9965,2.0046,2.0009,2.0046,2.0047,2.0065,2.0064,2.0176,2.0075,2.0075,2.0074,2.0074,0,1.9806,1.9849,1.9843,1.9872,1.992,1.991,1.9957,1.9962,1.9975,2.0005,1.9987,2.0015,2.0006,2.0034,2.003,2.0075,2.0082,2.0083,2.0081,2.0085,2.0084,2.0095,2.009,2.0077,2.0077,2.0076,2.0076,0,1.9895,1.9892,1.9943,1.9954,1.9957,1.9992,2.0001,2.0028,2.0028,2.0066,2.0074,2.0075,2.0106,2.0103,2.0138,2.0135,2.0191,2.0183,2.0185,2.0184,2.0221,2.0218,2.0344,2.036,2.0248,2.0249,2.025,0,1.9953,1.9986,2.0,2.0018,2.0027,2.0057,2.0074,2.0065,2.0084,2.0104,2.0129,2.0158,2.0181,2.0232,2.0235,2.0262,2.0255,2.0297,2.0259,2.026,2.0255,2.0253,2.0256,2.0305,2.0306,2.0307,2.0308,0,2.0057,2.0053,2.0079,2.0104,2.0125,2.0144,2.0161,2.0177,2.017,2.0192,2.0223,2.0241,2.0275,2.0305,2.0329,2.0337,2.0321,2.032,2.033,2.0334,2.0333,2.0334,2.0206,2.0317,2.0316,2.0316,2.0315,2.0315,2.0132,2.016,2.0173,2.0202,2.0214,2.023,2.0255,2.0258,2.0284,2.0311,2.0304,2.0339,2.0353,2.0385,2.0395,2.0421,2.0406,2.0421,2.0424,2.0428,2.0432,2.0329,2.0426,2.0426,2.0425,2.0425,2.0425,0,2.0235,2.0242,2.0268,2.0292,2.0314,2.0297,2.0314,2.0334,2.0365,2.0379,2.0402,2.0437,2.0464,2.0469,2.0495,2.0516,2.0509,2.0523,2.0521,2.0523,2.0445,2.0434,2.0527,2.0527,2.0527,2.0527,2.0527,2.0527,2.029,2.0335,2.0333,2.0384,2.039,2.0424,2.0436,2.045,2.0461,2.0501,2.0523,2.0526,2.0536,2.0562,2.0586,2.0587,2.0597,2.0614,2.0612,2.0539,2.0529,2.0519,2.0508,2.0616,2.0616,2.0688,2.0688,2.0689]}]]